Time,TemperatureF,DewpointF,PressureIn,WindDirection,WindDirectionDegrees,WindSpeedMPH,WindSpeedGustMPH,Humidity,HourlyPrecipIn,Conditions,Clouds,dailyrainin,SoftwareType,DateUTC
2013-01-03 00:03:00,14.8,10.1,30.13,NW,321,17.1,20.2,81,0.00,,,0.00,CWS Microserver 1.4,2013-01-03 06:03:00,
2013-01-03 00:08:00,14.4,9.8,30.13,NW,324,13.4,19.9,81,0.00,,,0.00,CWS Microserver 1.4,2013-01-03 06:08:00,
2013-01-03 00:13:00,14.2,9.6,30.13,NNW,341,16.5,18.1,81,0.00,,,0.00,CWS Microserver 1.4,2013-01-03 06:13:00,
2013-01-03 00:18:00,14.0,9.5,30.13,NNW,336,11.2,19.8,82,0.00,,,0.00,CWS Microserver 1.4,2013-01-03 06:18:00,
2013-01-03 00:23:00,13.9,9.4,30.13,NW,320,12.8,19.8,82,0.00,,,0.00,CWS Microserver 1.4,2013-01-03 06:23:00,
2013-01-03 00:28:00,13.5,9.0,30.13,NNW,329,9.4,15.9,82,0.00,,,0.00,CWS Microserver 1.4,2013-01-03 06:28:00,
2013-01-03 00:33:00,13.3,8.9,30.13,NNW,342,12.9,15.9,82,0.00,,,0.00,CWS Microserver 1.4,2013-01-03 06:33:00,
2013-01-03 00:38:00,13.3,9.0,30.13,NNW,337,10.5,15.8,82,0.00,,,0.00,CWS Microserver 1.4,2013-01-03 06:38:00,
2013-01-03 00:43:00,13.1,8.9,30.14,NNW,345,12.0,16.8,82,0.00,,,0.00,CWS Microserver 1.4,2013-01-03 06:43:00,
2013-01-03 00:48:00,13.1,8.9,30.14,NW,323,8.6,16.8,82,0.00,,,0.00,CWS Microserver 1.4,2013-01-03 06:48:00,
2013-01-03 00:53:00,13.1,8.8,30.14,NW,323,9.7,18.2,82,0.00,,,0.00,CWS Microserver 1.4,2013-01-03 06:53:00,
2013-01-03 00:58:00,13.1,8.8,30.14,NNW,336,11.8,18.2,82,0.00,,,0.00,CWS Microserver 1.4,2013-01-03 06:58:00,
2013-01-03 01:03:00,13.0,8.7,30.14,NW,325,10.1,16.6,82,0.00,,,0.00,CWS Microserver 1.4,2013-01-03 07:03:00,
2013-01-03 01:08:00,13.0,8.7,30.14,NW,324,12.7,16.6,82,0.00,,,0.00,CWS Microserver 1.4,2013-01-03 07:08:00,
2013-01-03 01:13:00,13.0,8.8,30.15,NW,322,10.1,16.3,82,0.00,,,0.00,CWS Microserver 1.4,2013-01-03 07:13:00,
2013-01-03 01:18:00,13.0,8.6,30.15,NW,322,9.4,17.8,82,0.00,,,0.00,CWS Microserver 1.4,2013-01-03 07:18:00,
2013-01-03 01:23:00,12.8,8.5,30.15,NNW,329,15.2,18.0,82,0.00,,,0.00,CWS Microserver 1.4,2013-01-03 07:23:00,
2013-01-03 01:28:00,12.8,8.5,30.15,NW,310,15.0,19.6,82,0.00,,,0.00,CWS Microserver 1.4,2013-01-03 07:28:00,
2013-01-03 01:33:00,12.6,8.3,30.16,NW,318,13.6,19.6,82,0.00,,,0.00,CWS Microserver 1.4,2013-01-03 07:33:00,
2013-01-03 01:38:00,12.6,8.2,30.16,NW,311,13.0,17.4,82,0.00,,,0.00,CWS Microserver 1.4,2013-01-03 07:38:00,
2013-01-03 01:43:00,12.4,8.0,30.16,NW,306,13.8,18.3,82,0.00,,,0.00,CWS Microserver 1.4,2013-01-03 07:43:00,
2013-01-03 01:48:00,12.4,8.1,30.16,NW,311,9.2,18.3,82,0.00,,,0.00,CWS Microserver 1.4,2013-01-03 07:48:00,
2013-01-03 01:53:00,12.4,8.2,30.16,NW,316,11.2,16.1,82,0.00,,,0.00,CWS Microserver 1.4,2013-01-03 07:53:00,
2013-01-03 01:58:00,12.4,7.9,30.16,NW,305,14.9,21.2,81,0.00,,,0.00,CWS Microserver 1.4,2013-01-03 07:58:00,
2013-01-03 02:03:00,12.2,7.6,30.16,NW,315,14.0,21.2,81,0.00,,,0.00,CWS Microserver 1.4,2013-01-03 08:03:00,
2013-01-03 02:08:00,12.1,7.7,30.16,NW,313,11.3,23.6,82,0.00,,,0.00,CWS Microserver 1.4,2013-01-03 08:08:00,
2013-01-03 02:13:00,11.9,7.6,30.16,NW,315,11.0,23.6,82,0.00,,,0.00,CWS Microserver 1.4,2013-01-03 08:13:00,
2013-01-03 02:18:00,11.7,7.3,30.16,NW,305,12.7,24.0,82,0.00,,,0.00,CWS Microserver 1.4,2013-01-03 08:18:00,
2013-01-03 02:23:00,11.5,7.1,30.16,NW,310,15.0,24.0,82,0.00,,,0.00,CWS Microserver 1.4,2013-01-03 08:23:00,
2013-01-03 02:28:00,11.3,6.8,30.16,NW,308,16.8,17.8,81,0.00,,,0.00,CWS Microserver 1.4,2013-01-03 08:28:00,
2013-01-03 02:33:00,11.2,6.7,30.16,NW,310,14.9,19.2,81,0.00,,,0.00,CWS Microserver 1.4,2013-01-03 08:33:00,
2013-01-03 02:38:00,11.0,6.4,30.16,WNW,300,15.3,19.2,81,0.00,,,0.00,CWS Microserver 1.4,2013-01-03 08:38:00,
2013-01-03 02:43:00,10.8,6.2,30.17,WNW,303,10.4,20.6,81,0.00,,,0.00,CWS Microserver 1.4,2013-01-03 08:43:00,
2013-01-03 02:48:00,10.8,6.2,30.17,NW,316,11.5,21.2,81,0.00,,,0.00,CWS Microserver 1.4,2013-01-03 08:48:00,
2013-01-03 02:53:00,10.6,5.8,30.17,NW,306,8.5,21.2,80,0.00,,,0.00,CWS Microserver 1.4,2013-01-03 08:53:00,
2013-01-03 02:58:00,10.4,5.7,30.17,WNW,297,11.8,20.4,80,0.00,,,0.00,CWS Microserver 1.4,2013-01-03 08:58:00,
2013-01-03 03:03:00,10.1,5.5,30.17,NW,312,9.6,20.0,81,0.00,,,0.00,CWS Microserver 1.4,2013-01-03 09:03:00,
2013-01-03 03:08:00,9.9,5.3,30.17,NW,319,16.3,19.9,81,0.00,,,0.00,CWS Microserver 1.4,2013-01-03 09:08:00,
2013-01-03 03:13:00,9.5,4.9,30.17,NW,312,14.9,20.0,81,0.00,,,0.00,CWS Microserver 1.4,2013-01-03 09:13:00,
2013-01-03 03:18:00,9.4,4.9,30.17,WNW,295,13.5,20.0,81,0.00,,,0.00,CWS Microserver 1.4,2013-01-03 09:18:00,
2013-01-03 03:23:00,9.2,4.6,30.18,WNW,302,14.4,17.8,81,0.00,,,0.00,CWS Microserver 1.4,2013-01-03 09:23:00,
2013-01-03 03:28:00,9.0,4.6,30.18,NW,307,11.7,17.7,81,0.00,,,0.00,CWS Microserver 1.4,2013-01-03 09:28:00,
2013-01-03 03:33:00,9.0,4.6,30.18,WNW,303,15.5,16.9,81,0.00,,,0.00,CWS Microserver 1.4,2013-01-03 09:33:00,
2013-01-03 03:38:00,8.8,4.3,30.18,NW,309,13.1,15.9,81,0.00,,,0.00,CWS Microserver 1.4,2013-01-03 09:38:00,
2013-01-03 03:43:00,8.8,4.2,30.18,NW,321,12.4,18.6,81,0.00,,,0.00,CWS Microserver 1.4,2013-01-03 09:43:00,
2013-01-03 03:48:00,8.6,4.0,30.18,NW,310,15.0,21.3,81,0.00,,,0.00,CWS Microserver 1.4,2013-01-03 09:48:00,
2013-01-03 03:53:00,8.5,4.1,30.18,WNW,301,15.8,21.3,81,0.00,,,0.00,CWS Microserver 1.4,2013-01-03 09:53:00,
2013-01-03 03:58:00,8.5,3.9,30.18,NW,306,16.3,23.0,81,0.00,,,0.00,CWS Microserver 1.4,2013-01-03 09:58:00,
2013-01-03 04:03:00,8.3,3.8,30.18,NW,319,11.2,23.0,81,0.00,,,0.00,CWS Microserver 1.4,2013-01-03 10:03:00,
2013-01-03 04:08:00,8.1,3.6,30.18,NW,312,15.6,22.6,81,0.00,,,0.00,CWS Microserver 1.4,2013-01-03 10:08:00,
2013-01-03 04:13:00,7.9,3.5,30.18,NW,314,12.5,22.0,81,0.00,,,0.00,CWS Microserver 1.4,2013-01-03 10:13:00,
2013-01-03 04:18:00,7.7,3.3,30.18,NW,313,15.3,19.3,81,0.00,,,0.00,CWS Microserver 1.4,2013-01-03 10:18:00,
2013-01-03 04:23:00,7.7,3.2,30.18,NW,323,17.0,22.1,81,0.00,,,0.00,CWS Microserver 1.4,2013-01-03 10:23:00,
2013-01-03 04:28:00,7.6,3.2,30.19,NW,320,17.8,25.0,81,0.00,,,0.00,CWS Microserver 1.4,2013-01-03 10:28:00,
2013-01-03 04:33:00,7.4,2.9,30.19,NW,315,16.2,25.0,81,0.00,,,0.00,CWS Microserver 1.4,2013-01-03 10:33:00,
2013-01-03 04:38:00,7.4,2.9,30.18,NW,312,15.6,22.7,81,0.00,,,0.00,CWS Microserver 1.4,2013-01-03 10:38:00,
2013-01-03 04:43:00,7.2,2.7,30.19,NW,311,15.2,22.5,81,0.00,,,0.00,CWS Microserver 1.4,2013-01-03 10:43:00,
2013-01-03 04:48:00,7.0,2.4,30.19,NW,305,14.1,21.0,80,0.00,,,0.00,CWS Microserver 1.4,2013-01-03 10:48:00,
2013-01-03 04:53:00,7.0,2.4,30.19,NW,316,16.2,20.8,80,0.00,,,0.00,CWS Microserver 1.4,2013-01-03 10:53:00,
2013-01-03 04:58:00,7.0,2.5,30.19,NW,316,10.8,20.3,81,0.00,,,0.00,CWS Microserver 1.4,2013-01-03 10:58:00,
2013-01-03 05:03:00,6.8,2.3,30.19,WNW,300,13.2,20.2,81,0.00,,,0.00,CWS Microserver 1.4,2013-01-03 11:03:00,
2013-01-03 05:08:00,6.8,2.2,30.19,NW,319,15.8,19.4,81,0.00,,,0.00,CWS Microserver 1.4,2013-01-03 11:08:00,
2013-01-03 05:13:00,6.8,2.2,30.19,NW,313,10.5,21.4,80,0.00,,,0.00,CWS Microserver 1.4,2013-01-03 11:13:00,
2013-01-03 05:18:00,6.8,2.1,30.20,NW,315,13.2,21.4,80,0.00,,,0.00,CWS Microserver 1.4,2013-01-03 11:18:00,
2013-01-03 05:23:00,6.8,2.2,30.20,NW,314,13.0,20.6,81,0.00,,,0.00,CWS Microserver 1.4,2013-01-03 11:23:00,
2013-01-03 05:28:00,6.7,2.2,30.20,NW,325,15.0,20.2,81,0.00,,,0.00,CWS Microserver 1.4,2013-01-03 11:28:00,
2013-01-03 05:33:00,6.7,2.3,30.20,NW,318,9.3,21.4,81,0.00,,,0.00,CWS Microserver 1.4,2013-01-03 11:33:00,
2013-01-03 05:38:00,6.7,2.3,30.21,NW,315,10.0,21.4,81,0.00,,,0.00,CWS Microserver 1.4,2013-01-03 11:38:00,
2013-01-03 05:43:00,6.7,2.2,30.21,NW,315,11.3,21.3,81,0.00,,,0.00,CWS Microserver 1.4,2013-01-03 11:43:00,
2013-01-03 05:48:00,6.5,1.8,30.21,NW,306,16.4,19.2,80,0.00,,,0.00,CWS Microserver 1.4,2013-01-03 11:48:00,
2013-01-03 05:53:00,6.5,1.9,30.21,NW,317,15.4,18.9,80,0.00,,,0.00,CWS Microserver 1.4,2013-01-03 11:53:00,
2013-01-03 05:58:00,6.3,1.8,30.21,NW,318,16.4,20.6,81,0.00,,,0.00,CWS Microserver 1.4,2013-01-03 11:58:00,
2013-01-03 06:03:00,6.1,1.6,30.22,NW,309,14.0,20.6,81,0.00,,,0.00,CWS Microserver 1.4,2013-01-03 12:03:00,
2013-01-03 06:08:00,6.1,1.5,30.22,WNW,295,15.9,21.0,81,0.00,,,0.00,CWS Microserver 1.4,2013-01-03 12:08:00,
2013-01-03 06:13:00,5.9,1.4,30.22,NW,315,17.7,21.0,81,0.00,,,0.00,CWS Microserver 1.4,2013-01-03 12:13:00,
2013-01-03 06:18:00,5.9,1.4,30.23,NW,325,12.7,20.2,81,0.00,,,0.00,CWS Microserver 1.4,2013-01-03 12:18:00,
2013-01-03 06:23:00,5.9,1.4,30.23,NW,314,11.3,20.2,81,0.00,,,0.00,CWS Microserver 1.4,2013-01-03 12:23:00,
2013-01-03 06:28:00,5.9,1.3,30.23,NW,316,13.6,19.5,81,0.00,,,0.00,CWS Microserver 1.4,2013-01-03 12:28:00,
2013-01-03 06:33:00,5.9,1.3,30.23,NW,318,15.7,23.0,81,0.00,,,0.00,CWS Microserver 1.4,2013-01-03 12:33:00,
2013-01-03 06:38:00,5.8,1.2,30.23,NW,315,16.6,23.0,80,0.00,,,0.00,CWS Microserver 1.4,2013-01-03 12:38:00,
2013-01-03 06:43:00,5.8,1.2,30.24,NW,305,15.2,21.3,81,0.00,,,0.00,CWS Microserver 1.4,2013-01-03 12:43:00,
2013-01-03 06:48:00,5.8,1.2,30.24,NW,311,14.5,20.2,80,0.00,,,0.00,CWS Microserver 1.4,2013-01-03 12:48:00,
2013-01-03 06:53:00,5.6,1.0,30.24,NW,322,14.1,18.7,81,0.00,,,0.00,CWS Microserver 1.4,2013-01-03 12:53:00,
2013-01-03 06:58:00,5.4,0.9,30.24,NW,316,13.8,18.7,81,0.00,,,0.00,CWS Microserver 1.4,2013-01-03 12:58:00,
2013-01-03 07:03:00,5.4,1.0,30.24,NW,319,12.6,18.7,81,0.00,,,0.00,CWS Microserver 1.4,2013-01-03 13:03:00,
2013-01-03 07:08:00,5.2,0.8,30.24,NW,326,10.6,18.7,81,0.00,,,0.00,CWS Microserver 1.4,2013-01-03 13:08:00,
2013-01-03 07:13:00,5.2,0.8,30.24,NNW,328,14.3,19.8,81,0.00,,,0.00,CWS Microserver 1.4,2013-01-03 13:13:00,
2013-01-03 07:18:00,5.2,0.8,30.24,NW,316,12.5,19.8,81,0.00,,,0.00,CWS Microserver 1.4,2013-01-03 13:18:00,
2013-01-03 07:23:00,5.2,0.8,30.23,NNW,327,14.0,17.7,81,0.00,,,0.00,CWS Microserver 1.4,2013-01-03 13:23:00,
2013-01-03 07:28:00,5.2,0.7,30.23,NNW,327,14.4,19.1,81,0.00,,,0.00,CWS Microserver 1.4,2013-01-03 13:28:00,
2013-01-03 07:33:00,5.2,0.8,30.24,NW,325,14.2,19.1,81,0.00,,,0.00,CWS Microserver 1.4,2013-01-03 13:33:00,
2013-01-03 07:38:00,5.0,0.6,30.23,NNW,327,17.0,18.3,81,0.00,,,0.00,CWS Microserver 1.4,2013-01-03 13:38:00,
2013-01-03 07:43:00,5.0,0.7,30.24,NW,318,13.5,18.3,81,0.00,,,0.00,CWS Microserver 1.4,2013-01-03 13:43:00,
2013-01-03 07:48:00,5.0,0.7,30.24,NNW,336,9.7,17.8,81,0.00,,,0.00,CWS Microserver 1.4,2013-01-03 13:48:00,
2013-01-03 07:53:00,5.0,0.7,30.24,NW,322,12.6,18.1,81,0.00,,,0.00,CWS Microserver 1.4,2013-01-03 13:53:00,
2013-01-03 07:58:00,5.0,0.6,30.24,NW,313,12.4,18.1,81,0.00,,,0.00,CWS Microserver 1.4,2013-01-03 13:58:00,
2013-01-03 08:03:00,4.9,0.5,30.24,NNW,327,10.2,17.8,81,0.00,,,0.00,CWS Microserver 1.4,2013-01-03 14:03:00,
2013-01-03 08:08:00,4.9,0.5,30.24,NW,304,13.9,16.7,81,0.00,,,0.00,CWS Microserver 1.4,2013-01-03 14:08:00,
2013-01-03 08:13:00,4.9,0.5,30.24,NW,317,12.2,16.7,81,0.00,,,0.00,CWS Microserver 1.4,2013-01-03 14:13:00,
2013-01-03 08:18:00,5.0,0.5,30.24,NW,323,8.3,16.3,81,0.00,,,0.00,CWS Microserver 1.4,2013-01-03 14:18:00,
2013-01-03 08:23:00,5.0,0.5,30.24,NW,307,10.1,16.6,81,0.00,,,0.00,CWS Microserver 1.4,2013-01-03 14:23:00,
2013-01-03 08:28:00,5.0,0.4,30.24,NW,319,16.7,16.7,80,0.00,,,0.00,CWS Microserver 1.4,2013-01-03 14:28:00,
2013-01-03 08:33:00,5.2,0.6,30.24,NNW,334,11.0,17.0,80,0.00,,,0.00,CWS Microserver 1.4,2013-01-03 14:33:00,
2013-01-03 08:43:00,5.2,0.5,30.25,NW,319,13.5,16.2,80,0.00,,,0.00,CWS Microserver 1.4,2013-01-03 14:43:00,
2013-01-03 08:48:00,5.4,0.6,30.25,NW,324,8.2,17.2,80,0.00,,,0.00,CWS Microserver 1.4,2013-01-03 14:48:00,
2013-01-03 08:53:00,5.6,0.7,30.25,NW,313,13.2,17.2,79,0.00,,,0.00,CWS Microserver 1.4,2013-01-03 14:53:00,
2013-01-03 08:58:00,5.8,0.8,30.26,NW,316,9.6,18.1,79,0.00,,,0.00,CWS Microserver 1.4,2013-01-03 14:58:00,
2013-01-03 09:03:00,5.8,0.7,30.26,NW,326,11.3,18.1,78,0.00,,,0.00,CWS Microserver 1.4,2013-01-03 15:03:00,
2013-01-03 09:08:00,5.9,0.7,30.26,NW,315,14.5,18.6,78,0.00,,,0.00,CWS Microserver 1.4,2013-01-03 15:08:00,
2013-01-03 09:13:00,5.9,0.7,30.26,NW,310,11.6,18.6,78,0.00,,,0.00,CWS Microserver 1.4,2013-01-03 15:13:00,
2013-01-03 09:18:00,6.1,0.9,30.27,NW,321,14.3,18.5,78,0.00,,,0.00,CWS Microserver 1.4,2013-01-03 15:18:00,
2013-01-03 09:23:00,6.1,0.9,30.27,NW,310,10.9,18.5,78,0.00,,,0.00,CWS Microserver 1.4,2013-01-03 15:23:00,
2013-01-03 09:28:00,6.1,0.9,30.27,NW,306,11.8,18.7,78,0.00,,,0.00,CWS Microserver 1.4,2013-01-03 15:28:00,
2013-01-03 09:33:00,6.3,1.0,30.27,NW,310,10.2,18.7,78,0.00,,,0.00,CWS Microserver 1.4,2013-01-03 15:33:00,
2013-01-03 09:38:00,6.5,1.1,30.28,NW,307,16.1,18.4,78,0.00,,,0.00,CWS Microserver 1.4,2013-01-03 15:38:00,
2013-01-03 09:43:00,6.7,1.3,30.28,NW,309,7.4,18.4,77,0.00,,,0.00,CWS Microserver 1.4,2013-01-03 15:43:00,
2013-01-03 09:48:00,7.0,1.5,30.28,NNW,338,5.7,17.5,77,0.00,,,0.00,CWS Microserver 1.4,2013-01-03 15:48:00,
2013-01-03 09:53:00,7.4,1.7,30.28,WNW,288,9.3,17.5,77,0.00,,,0.00,CWS Microserver 1.4,2013-01-03 15:53:00,
2013-01-03 09:58:00,7.4,1.6,30.28,NW,311,9.8,15.1,76,0.00,,,0.00,CWS Microserver 1.4,2013-01-03 15:58:00,
2013-01-03 10:03:00,7.4,1.7,30.28,NW,313,10.9,16.7,76,0.00,,,0.00,CWS Microserver 1.4,2013-01-03 16:03:00,
2013-01-03 10:08:00,7.4,1.7,30.29,NW,308,8.0,17.0,77,0.00,,,0.00,CWS Microserver 1.4,2013-01-03 16:08:00,
2013-01-03 10:13:00,7.6,1.8,30.29,NW,314,13.2,17.0,76,0.00,,,0.00,CWS Microserver 1.4,2013-01-03 16:13:00,
2013-01-03 10:18:00,7.7,2.0,30.29,NW,318,12.3,17.1,76,0.00,,,0.00,CWS Microserver 1.4,2013-01-03 16:18:00,
2013-01-03 10:23:00,8.1,2.3,30.29,NW,306,11.8,17.4,76,0.00,,,0.00,CWS Microserver 1.4,2013-01-03 16:23:00,
2013-01-03 10:28:00,8.3,2.3,30.29,NW,311,13.7,17.4,76,0.00,,,0.00,CWS Microserver 1.4,2013-01-03 16:28:00,
2013-01-03 10:33:00,8.3,2.4,30.29,NW,313,13.3,18.2,76,0.00,,,0.00,CWS Microserver 1.4,2013-01-03 16:33:00,
2013-01-03 10:38:00,8.6,2.8,30.29,NW,305,11.6,18.2,76,0.00,,,0.00,CWS Microserver 1.4,2013-01-03 16:38:00,
2013-01-03 10:43:00,8.8,2.8,30.29,NW,311,15.0,16.8,76,0.00,,,0.00,CWS Microserver 1.4,2013-01-03 16:43:00,
2013-01-03 10:48:00,9.0,3.0,30.29,NW,316,14.8,17.4,76,0.00,,,0.00,CWS Microserver 1.4,2013-01-03 16:48:00,
2013-01-03 10:53:00,9.2,3.1,30.29,NW,313,9.5,17.4,75,0.00,,,0.00,CWS Microserver 1.4,2013-01-03 16:53:00,
2013-01-03 10:58:00,9.4,3.3,30.29,WNW,303,8.8,16.4,75,0.00,,,0.00,CWS Microserver 1.4,2013-01-03 16:58:00,
2013-01-03 11:03:00,9.5,3.5,30.29,NW,315,14.1,16.3,76,0.00,,,0.00,CWS Microserver 1.4,2013-01-03 17:03:00,
2013-01-03 11:08:00,9.9,3.8,30.29,NW,315,11.4,17.8,75,0.00,,,0.00,CWS Microserver 1.4,2013-01-03 17:08:00,
2013-01-03 11:13:00,10.1,4.1,30.29,NW,305,9.5,17.8,76,0.00,,,0.00,CWS Microserver 1.4,2013-01-03 17:13:00,
2013-01-03 11:18:00,10.3,4.2,30.28,NW,306,11.2,16.5,75,0.00,,,0.00,CWS Microserver 1.4,2013-01-03 17:18:00,
2013-01-03 11:23:00,10.4,4.3,30.28,NW,313,14.8,16.5,75,0.00,,,0.00,CWS Microserver 1.4,2013-01-03 17:23:00,
2013-01-03 11:28:00,10.4,4.3,30.28,NNW,331,15.6,19.9,75,0.00,,,0.00,CWS Microserver 1.4,2013-01-03 17:28:00,
2013-01-03 11:33:00,10.8,4.7,30.28,NW,325,13.1,19.9,75,0.00,,,0.00,CWS Microserver 1.4,2013-01-03 17:33:00,
2013-01-03 11:38:00,11.0,5.0,30.28,WNW,301,10.5,19.3,76,0.00,,,0.00,CWS Microserver 1.4,2013-01-03 17:38:00,
2013-01-03 11:43:00,11.0,4.9,30.28,NW,311,12.1,17.5,76,0.00,,,0.00,CWS Microserver 1.4,2013-01-03 17:43:00,
2013-01-03 11:48:00,11.2,5.3,30.28,NW,314,11.0,17.9,76,0.00,,,0.00,CWS Microserver 1.4,2013-01-03 17:48:00,
2013-01-03 11:53:00,11.7,5.9,30.27,WNW,292,13.6,17.9,76,0.00,,,0.00,CWS Microserver 1.4,2013-01-03 17:53:00,
2013-01-03 11:58:00,11.9,5.9,30.27,NW,309,11.1,17.4,76,0.00,,,0.00,CWS Microserver 1.4,2013-01-03 17:58:00,
2013-01-03 12:03:00,12.1,6.2,30.27,NW,310,8.6,17.4,76,0.00,,,0.00,CWS Microserver 1.4,2013-01-03 18:03:00,
2013-01-03 12:08:00,12.2,6.1,30.27,NW,312,14.9,15.9,75,0.00,,,0.00,CWS Microserver 1.4,2013-01-03 18:08:00,
2013-01-03 12:13:00,12.2,6.0,30.27,NW,320,7.3,15.1,75,0.00,,,0.00,CWS Microserver 1.4,2013-01-03 18:13:00,
2013-01-03 12:18:00,12.6,6.3,30.26,NW,311,10.6,15.3,75,0.00,,,0.00,CWS Microserver 1.4,2013-01-03 18:18:00,
2013-01-03 12:23:00,12.6,6.2,30.26,NW,313,15.7,17.4,75,0.00,,,0.00,CWS Microserver 1.4,2013-01-03 18:23:00,
2013-01-03 12:28:00,12.6,6.3,30.26,NW,313,10.9,18.1,75,0.00,,,0.00,CWS Microserver 1.4,2013-01-03 18:28:00,
2013-01-03 12:33:00,12.8,6.4,30.26,NW,308,12.3,18.1,75,0.00,,,0.00,CWS Microserver 1.4,2013-01-03 18:33:00,
2013-01-03 12:38:00,13.0,6.8,30.26,NW,316,11.7,17.4,75,0.00,,,0.00,CWS Microserver 1.4,2013-01-03 18:38:00,
2013-01-03 12:43:00,13.0,7.0,30.26,WNW,291,8.7,17.4,76,0.00,,,0.00,CWS Microserver 1.4,2013-01-03 18:43:00,
2013-01-03 12:48:00,13.1,6.8,30.26,NW,318,11.3,16.1,75,0.00,,,0.00,CWS Microserver 1.4,2013-01-03 18:48:00,
2013-01-03 12:53:00,13.5,7.2,30.25,NW,311,9.3,16.7,75,0.00,,,0.00,CWS Microserver 1.4,2013-01-03 18:53:00,
2013-01-03 12:58:00,13.3,7.0,30.25,NW,312,10.5,16.8,75,0.00,,,0.00,CWS Microserver 1.4,2013-01-03 18:58:00,
2013-01-03 13:03:00,13.7,7.1,30.26,NW,315,14.3,17.8,74,0.00,,,0.00,CWS Microserver 1.4,2013-01-03 19:03:00,
2013-01-03 13:08:00,13.9,7.5,30.25,WNW,299,7.6,17.8,75,0.00,,,0.00,CWS Microserver 1.4,2013-01-03 19:08:00,
2013-01-03 13:13:00,14.0,7.2,30.25,WNW,301,7.7,15.2,74,0.00,,,0.00,CWS Microserver 1.4,2013-01-03 19:13:00,
2013-01-03 13:18:00,14.0,7.7,30.25,WNW,286,7.6,14.0,75,0.00,,,0.00,CWS Microserver 1.4,2013-01-03 19:18:00,
2013-01-03 13:58:00,14.6,7.6,30.24,WNW,287,13.4,16.8,73,0.00,,,0.00,CWS Microserver 1.4,2013-01-03 19:58:00,
2013-01-03 14:03:00,14.8,7.9,30.24,West,277,15.9,17.6,73,0.00,,,0.00,CWS Microserver 1.4,2013-01-03 20:03:00,
2013-01-03 14:08:00,14.8,7.9,30.24,WNW,283,15.0,17.6,73,0.00,,,0.00,CWS Microserver 1.4,2013-01-03 20:08:00,
2013-01-03 14:13:00,14.9,8.1,30.24,WNW,283,11.8,15.9,73,0.00,,,0.00,CWS Microserver 1.4,2013-01-03 20:13:00,
2013-01-03 14:18:00,15.3,8.2,30.24,WNW,293,10.6,16.8,73,0.00,,,0.00,CWS Microserver 1.4,2013-01-03 20:18:00,
2013-01-03 14:23:00,15.3,7.8,30.24,WNW,285,13.8,17.5,71,0.00,,,0.00,CWS Microserver 1.4,2013-01-03 20:23:00,
2013-01-03 14:28:00,15.1,8.0,30.24,WNW,292,14.4,17.6,72,0.00,,,0.00,CWS Microserver 1.4,2013-01-03 20:28:00,
2013-01-03 14:33:00,14.8,8.1,30.25,West,280,13.9,18.2,74,0.00,,,0.00,CWS Microserver 1.4,2013-01-03 20:33:00,
2013-01-03 14:38:00,14.9,8.2,30.25,WNW,292,12.0,18.2,74,0.00,,,0.00,CWS Microserver 1.4,2013-01-03 20:38:00,
2013-01-03 14:43:00,15.1,9.0,30.25,West,281,12.3,18.1,76,0.00,,,0.00,CWS Microserver 1.4,2013-01-03 20:43:00,
2013-01-03 14:48:00,15.1,8.7,30.25,WNW,289,13.0,19.0,75,0.00,,,0.00,CWS Microserver 1.4,2013-01-03 20:48:00,
2013-01-03 14:53:00,15.3,8.8,30.25,WNW,290,8.2,19.0,75,0.00,,,0.00,CWS Microserver 1.4,2013-01-03 20:53:00,
2013-01-03 14:58:00,15.3,9.0,30.25,West,278,11.3,17.5,75,0.00,,,0.00,CWS Microserver 1.4,2013-01-03 20:58:00,
2013-01-03 15:03:00,15.5,9.3,30.25,WNW,283,11.4,17.4,75,0.00,,,0.00,CWS Microserver 1.4,2013-01-03 21:03:00,
2013-01-03 15:08:00,15.5,9.4,30.24,WNW,287,7.5,16.7,76,0.00,,,0.00,CWS Microserver 1.4,2013-01-03 21:08:00,
2013-01-03 15:13:00,15.5,9.4,30.24,West,281,15.3,18.4,76,0.00,,,0.00,CWS Microserver 1.4,2013-01-03 21:13:00,
2013-01-03 15:18:00,15.3,9.0,30.24,West,271,15.1,19.3,75,0.00,,,0.00,CWS Microserver 1.4,2013-01-03 21:18:00,
2013-01-03 15:23:00,15.5,9.5,30.25,WNW,293,6.4,19.3,76,0.00,,,0.00,CWS Microserver 1.4,2013-01-03 21:23:00,
2013-01-03 15:28:00,15.5,9.4,30.25,West,280,14.4,16.5,76,0.00,,,0.00,CWS Microserver 1.4,2013-01-03 21:28:00,
2013-01-03 15:33:00,15.5,9.4,30.25,WNW,288,5.7,17.2,76,0.00,,,0.00,CWS Microserver 1.4,2013-01-03 21:33:00,
2013-01-03 15:38:00,15.3,9.2,30.24,West,270,6.1,17.2,76,0.00,,,0.00,CWS Microserver 1.4,2013-01-03 21:38:00,
2013-01-03 15:43:00,15.3,9.4,30.25,West,268,10.8,15.8,77,0.00,,,0.00,CWS Microserver 1.4,2013-01-03 21:43:00,
2013-01-03 15:48:00,15.1,9.2,30.25,West,261,7.4,12.2,77,0.00,,,0.00,CWS Microserver 1.4,2013-01-03 21:48:00,
2013-01-03 15:53:00,15.1,9.1,30.24,West,265,4.9,12.2,76,0.00,,,0.00,CWS Microserver 1.4,2013-01-03 21:53:00,
2013-01-03 15:58:00,15.3,9.4,30.24,West,270,9.0,10.2,77,0.00,,,0.00,CWS Microserver 1.4,2013-01-03 21:58:00,
2013-01-03 16:03:00,15.1,9.2,30.24,West,276,7.7,10.2,77,0.00,,,0.00,CWS Microserver 1.4,2013-01-03 22:03:00,
2013-01-03 16:08:00,15.1,9.3,30.24,West,260,5.5,10.4,77,0.00,,,0.00,CWS Microserver 1.4,2013-01-03 22:08:00,
2013-01-03 16:13:00,15.3,9.4,30.24,WSW,258,7.4,10.4,76,0.00,,,0.00,CWS Microserver 1.4,2013-01-03 22:13:00,
2013-01-03 16:18:00,15.3,9.4,30.24,WSW,252,7.0,9.4,77,0.00,,,0.00,CWS Microserver 1.4,2013-01-03 22:18:00,
2013-01-03 16:23:00,15.3,9.3,30.24,WSW,247,7.2,9.0,76,0.00,,,0.00,CWS Microserver 1.4,2013-01-03 22:23:00,
2013-01-03 16:28:00,15.1,9.3,30.24,SW,230,6.7,9.3,77,0.00,,,0.00,CWS Microserver 1.4,2013-01-03 22:28:00,
2013-01-03 16:33:00,14.9,9.2,30.24,WSW,244,9.7,10.9,77,0.00,,,0.00,CWS Microserver 1.4,2013-01-03 22:33:00,
2013-01-03 16:38:00,14.8,9.2,30.24,WSW,238,7.9,14.0,77,0.00,,,0.00,CWS Microserver 1.4,2013-01-03 22:38:00,
2013-01-03 16:43:00,14.6,8.8,30.24,NW,309,3.3,14.0,77,0.00,,,0.00,CWS Microserver 1.4,2013-01-03 22:43:00,
2013-01-03 16:48:00,14.4,8.8,30.24,SW,236,9.6,14.5,77,0.00,,,0.00,CWS Microserver 1.4,2013-01-03 22:48:00,
2013-01-03 16:53:00,14.4,9.1,30.24,SW,228,13.1,15.3,78,0.00,,,0.00,CWS Microserver 1.4,2013-01-03 22:53:00,
2013-01-03 16:58:00,14.6,8.9,30.24,WSW,247,13.4,15.3,77,0.00,,,0.00,CWS Microserver 1.4,2013-01-03 22:58:00,
2013-01-03 17:03:00,14.4,8.8,30.23,WSW,251,10.4,15.2,78,0.00,,,0.00,CWS Microserver 1.4,2013-01-03 23:03:00,
2013-01-03 17:08:00,14.0,8.6,30.24,WSW,252,9.1,14.7,78,0.00,,,0.00,CWS Microserver 1.4,2013-01-03 23:08:00,
2013-01-03 17:13:00,13.7,8.2,30.23,South,181,2.2,12.0,78,0.00,,,0.00,CWS Microserver 1.4,2013-01-03 23:13:00,
2013-01-03 17:18:00,13.3,8.2,30.24,WSW,239,6.4,9.5,79,0.00,,,0.00,CWS Microserver 1.4,2013-01-03 23:18:00,
2013-01-03 17:23:00,13.9,9.2,30.23,WSW,239,8.2,14.2,81,0.00,,,0.00,CWS Microserver 1.4,2013-01-03 23:23:00,
2013-01-03 17:28:00,13.9,8.5,30.23,SW,218,5.7,14.2,78,0.00,,,0.00,CWS Microserver 1.4,2013-01-03 23:28:00,
2013-01-03 17:33:00,13.5,8.4,30.23,SW,227,5.3,11.9,79,0.00,,,0.00,CWS Microserver 1.4,2013-01-03 23:33:00,
2013-01-03 17:38:00,13.1,8.2,30.23,SW,217,3.6,11.3,80,0.00,,,0.00,CWS Microserver 1.4,2013-01-03 23:38:00,
2013-01-03 17:43:00,13.1,8.1,30.23,SW,226,6.1,10.2,79,0.00,,,0.00,CWS Microserver 1.4,2013-01-03 23:43:00,
2013-01-03 17:48:00,13.1,8.5,30.23,SW,228,3.9,10.3,81,0.00,,,0.00,CWS Microserver 1.4,2013-01-03 23:48:00,
2013-01-03 17:53:00,13.3,8.8,30.22,SW,220,8.2,11.2,81,0.00,,,0.00,CWS Microserver 1.4,2013-01-03 23:53:00,
2013-01-03 17:58:00,13.3,8.6,30.22,WSW,239,12.3,12.3,81,0.00,,,0.00,CWS Microserver 1.4,2013-01-03 23:58:00,
2013-01-03 18:03:00,13.5,9.0,30.22,SW,225,6.1,13.6,81,0.00,,,0.00,CWS Microserver 1.4,2013-01-04 00:03:00,
2013-01-03 18:08:00,13.9,9.4,30.22,WSW,257,2.8,13.6,81,0.00,,,0.00,CWS Microserver 1.4,2013-01-04 00:08:00,
2013-01-03 18:13:00,13.9,9.1,30.22,SW,225,4.5,13.4,80,0.00,,,0.00,CWS Microserver 1.4,2013-01-04 00:13:00,
2013-01-03 18:18:00,13.9,9.3,30.22,WSW,254,5.5,11.3,81,0.00,,,0.00,CWS Microserver 1.4,2013-01-04 00:18:00,
2013-01-03 18:23:00,14.0,9.4,30.21,WSW,240,5.8,14.8,81,0.00,,,0.00,CWS Microserver 1.4,2013-01-04 00:23:00,
2013-01-03 18:28:00,14.0,9.3,30.21,SSW,209,3.6,14.8,81,0.00,,,0.00,CWS Microserver 1.4,2013-01-04 00:28:00,
2013-01-03 18:33:00,14.0,9.4,30.22,SW,226,4.5,13.8,81,0.00,,,0.00,CWS Microserver 1.4,2013-01-04 00:33:00,
2013-01-03 18:38:00,14.6,10.2,30.22,WSW,241,9.8,16.7,82,0.00,,,0.00,CWS Microserver 1.4,2013-01-04 00:38:00,
2013-01-03 18:43:00,14.8,10.3,30.21,West,264,9.0,17.4,81,0.00,,,0.00,CWS Microserver 1.4,2013-01-04 00:43:00,
2013-01-03 18:48:00,14.9,10.1,30.21,WSW,238,10.9,19.3,81,0.00,,,0.00,CWS Microserver 1.4,2013-01-04 00:48:00,
2013-01-03 18:53:00,14.9,9.7,30.21,WSW,245,13.2,19.3,79,0.00,,,0.00,CWS Microserver 1.4,2013-01-04 00:53:00,
2013-01-03 18:58:00,14.8,10.0,30.21,SW,235,9.9,14.5,80,0.00,,,0.00,CWS Microserver 1.4,2013-01-04 00:58:00,
2013-01-03 19:03:00,14.6,9.9,30.21,SSW,209,4.7,14.5,81,0.00,,,0.00,CWS Microserver 1.4,2013-01-04 01:03:00,
2013-01-03 19:08:00,14.6,9.9,30.21,WSW,240,10.1,15.0,81,0.00,,,0.00,CWS Microserver 1.4,2013-01-04 01:08:00,
2013-01-03 19:13:00,14.9,9.9,30.21,SW,218,9.7,15.0,80,0.00,,,0.00,CWS Microserver 1.4,2013-01-04 01:13:00,
2013-01-03 19:18:00,15.1,10.3,30.21,SW,231,6.7,13.9,80,0.00,,,0.00,CWS Microserver 1.4,2013-01-04 01:18:00,
2013-01-03 19:23:00,15.3,10.5,30.21,WSW,237,8.6,12.3,81,0.00,,,0.00,CWS Microserver 1.4,2013-01-04 01:23:00,
2013-01-03 19:28:00,15.3,10.6,30.21,SW,219,13.2,13.2,81,0.00,,,0.00,CWS Microserver 1.4,2013-01-04 01:28:00,
2013-01-03 19:33:00,15.1,10.6,30.20,SW,228,13.5,14.2,82,0.00,,,0.00,CWS Microserver 1.4,2013-01-04 01:33:00,
2013-01-03 19:38:00,15.3,10.7,30.20,WSW,248,9.9,14.3,81,0.00,,,0.00,CWS Microserver 1.4,2013-01-04 01:38:00,
2013-01-03 19:43:00,15.5,10.9,30.20,SW,224,9.1,15.2,81,0.00,,,0.00,CWS Microserver 1.4,2013-01-04 01:43:00,
2013-01-03 19:48:00,15.5,10.9,30.20,SW,235,6.6,16.4,81,0.00,,,0.00,CWS Microserver 1.4,2013-01-04 01:48:00,
2013-01-03 19:53:00,15.8,11.2,30.20,SW,230,6.7,16.4,81,0.00,,,0.00,CWS Microserver 1.4,2013-01-04 01:53:00,
2013-01-03 19:58:00,16.0,11.3,30.19,SW,227,12.5,17.0,81,0.00,,,0.00,CWS Microserver 1.4,2013-01-04 01:58:00,
2013-01-03 20:03:00,15.8,11.1,30.19,SW,225,8.2,17.0,81,0.00,,,0.00,CWS Microserver 1.4,2013-01-04 02:03:00,
2013-01-03 20:08:00,16.0,11.2,30.18,SW,219,11.1,17.5,81,0.00,,,0.00,CWS Microserver 1.4,2013-01-04 02:08:00,
2013-01-03 20:13:00,15.8,11.2,30.18,WSW,237,8.2,17.5,81,0.00,,,0.00,CWS Microserver 1.4,2013-01-04 02:13:00,
2013-01-03 20:18:00,16.0,11.2,30.18,SW,225,8.5,17.1,81,0.00,,,0.00,CWS Microserver 1.4,2013-01-04 02:18:00,
2013-01-03 20:23:00,15.8,11.1,30.18,SW,215,13.0,15.8,81,0.00,,,0.00,CWS Microserver 1.4,2013-01-04 02:23:00,
2013-01-03 20:28:00,15.8,11.2,30.18,SW,227,8.3,15.8,81,0.00,,,0.00,CWS Microserver 1.4,2013-01-04 02:28:00,
2013-01-03 20:33:00,16.0,11.2,30.18,SW,235,5.2,16.0,81,0.00,,,0.00,CWS Microserver 1.4,2013-01-04 02:33:00,
2013-01-03 20:38:00,15.8,11.1,30.18,WSW,247,10.6,16.0,81,0.00,,,0.00,CWS Microserver 1.4,2013-01-04 02:38:00,
2013-01-03 20:43:00,16.0,11.4,30.17,SW,228,11.7,15.0,81,0.00,,,0.00,CWS Microserver 1.4,2013-01-04 02:43:00,
2013-01-03 20:48:00,16.0,11.1,30.17,SW,230,10.6,14.4,80,0.00,,,0.00,CWS Microserver 1.4,2013-01-04 02:48:00,
2013-01-03 20:53:00,15.8,11.0,30.16,WSW,245,9.5,14.4,81,0.00,,,0.00,CWS Microserver 1.4,2013-01-04 02:53:00,
2013-01-03 20:58:00,15.8,11.0,30.16,WSW,242,8.0,14.0,80,0.00,,,0.00,CWS Microserver 1.4,2013-01-04 02:58:00,
2013-01-03 21:03:00,16.0,11.3,30.16,SW,236,8.1,13.5,81,0.00,,,0.00,CWS Microserver 1.4,2013-01-04 03:03:00,
2013-01-03 21:08:00,16.2,11.5,30.16,SW,225,9.6,14.2,81,0.00,,,0.00,CWS Microserver 1.4,2013-01-04 03:08:00,
2013-01-03 21:13:00,16.4,11.7,30.16,SW,219,8.9,15.9,81,0.00,,,0.00,CWS Microserver 1.4,2013-01-04 03:13:00,
2013-01-03 21:18:00,16.4,11.6,30.15,WSW,242,12.4,15.9,81,0.00,,,0.00,CWS Microserver 1.4,2013-01-04 03:18:00,
2013-01-03 21:23:00,16.7,11.9,30.15,SW,224,14.6,17.2,81,0.00,,,0.00,CWS Microserver 1.4,2013-01-04 03:23:00,
2013-01-03 21:28:00,16.7,11.7,30.15,WSW,245,10.4,17.4,80,0.00,,,0.00,CWS Microserver 1.4,2013-01-04 03:28:00,
2013-01-03 21:33:00,16.7,11.8,30.15,SW,230,7.7,17.4,80,0.00,,,0.00,CWS Microserver 1.4,2013-01-04 03:33:00,
2013-01-03 21:38:00,16.6,11.5,30.14,WSW,255,10.8,14.5,80,0.00,,,0.00,CWS Microserver 1.4,2013-01-04 03:38:00,
2013-01-03 21:43:00,16.6,11.7,30.14,WSW,241,10.5,14.5,80,0.00,,,0.00,CWS Microserver 1.4,2013-01-04 03:43:00,
2013-01-03 21:48:00,16.6,11.7,30.14,SW,236,12.1,14.4,80,0.00,,,0.00,CWS Microserver 1.4,2013-01-04 03:48:00,
2013-01-03 21:53:00,16.6,11.6,30.14,WSW,240,8.8,14.7,80,0.00,,,0.00,CWS Microserver 1.4,2013-01-04 03:53:00,
2013-01-03 21:58:00,16.7,11.7,30.14,SW,226,7.4,14.7,80,0.00,,,0.00,CWS Microserver 1.4,2013-01-04 03:58:00,
2013-01-03 22:03:00,16.9,11.8,30.13,SW,222,9.9,15.2,80,0.00,,,0.00,CWS Microserver 1.4,2013-01-04 04:03:00,
2013-01-03 22:08:00,17.1,11.8,30.14,SSW,205,3.9,15.3,79,0.00,,,0.00,CWS Microserver 1.4,2013-01-04 04:08:00,
2013-01-03 22:13:00,17.3,12.1,30.13,SW,228,8.9,15.3,79,0.00,,,0.00,CWS Microserver 1.4,2013-01-04 04:13:00,
2013-01-03 22:18:00,17.5,12.0,30.13,SW,224,7.9,15.1,78,0.00,,,0.00,CWS Microserver 1.4,2013-01-04 04:18:00,
2013-01-03 22:23:00,17.5,12.1,30.13,SW,233,10.2,15.1,78,0.00,,,0.00,CWS Microserver 1.4,2013-01-04 04:23:00,
2013-01-03 22:28:00,17.5,12.0,30.13,SW,224,8.9,12.9,78,0.00,,,0.00,CWS Microserver 1.4,2013-01-04 04:28:00,
2013-01-03 22:33:00,17.5,12.0,30.13,SW,226,10.8,15.4,78,0.00,,,0.00,CWS Microserver 1.4,2013-01-04 04:33:00,
2013-01-03 22:38:00,17.5,12.0,30.13,WSW,245,10.1,16.9,78,0.00,,,0.00,CWS Microserver 1.4,2013-01-04 04:38:00,
2013-01-03 22:43:00,17.6,12.1,30.13,WSW,237,8.9,21.8,78,0.00,,,0.00,CWS Microserver 1.4,2013-01-04 04:43:00,
2013-01-03 22:48:00,18.0,12.3,30.13,WSW,238,10.4,21.8,78,0.00,,,0.00,CWS Microserver 1.4,2013-01-04 04:48:00,
2013-01-03 22:53:00,18.4,12.5,30.12,WSW,240,12.3,18.8,77,0.00,,,0.00,CWS Microserver 1.4,2013-01-04 04:53:00,
2013-01-03 22:58:00,18.4,12.5,30.13,WSW,240,13.8,18.8,77,0.00,,,0.00,CWS Microserver 1.4,2013-01-04 04:58:00,
2013-01-03 23:03:00,18.5,12.7,30.13,SW,215,6.2,21.0,77,0.00,,,0.00,CWS Microserver 1.4,2013-01-04 05:03:00,
2013-01-03 23:08:00,18.9,12.9,30.13,WSW,250,14.1,21.9,77,0.00,,,0.00,CWS Microserver 1.4,2013-01-04 05:08:00,
2013-01-03 23:13:00,18.9,12.8,30.13,WSW,240,12.1,21.9,76,0.00,,,0.00,CWS Microserver 1.4,2013-01-04 05:13:00,
2013-01-03 23:18:00,18.9,12.7,30.13,SW,234,10.5,19.7,76,0.00,,,0.00,CWS Microserver 1.4,2013-01-04 05:18:00,
2013-01-03 23:23:00,18.9,12.8,30.12,SW,233,12.6,23.0,76,0.00,,,0.00,CWS Microserver 1.4,2013-01-04 05:23:00,
2013-01-03 23:28:00,18.7,12.7,30.12,WSW,247,15.5,23.0,76,0.00,,,0.00,CWS Microserver 1.4,2013-01-04 05:28:00,
2013-01-03 23:33:00,18.9,12.9,30.12,WSW,244,15.3,22.5,76,0.00,,,0.00,CWS Microserver 1.4,2013-01-04 05:33:00,
2013-01-03 23:38:00,19.3,13.1,30.12,SW,233,14.6,21.4,76,0.00,,,0.00,CWS Microserver 1.4,2013-01-04 05:38:00,
2013-01-03 23:43:00,19.4,13.2,30.11,SW,233,16.1,20.7,76,0.00,,,0.00,CWS Microserver 1.4,2013-01-04 05:43:00,
2013-01-03 23:48:00,19.8,13.5,30.11,SW,233,17.4,19.9,76,0.00,,,0.00,CWS Microserver 1.4,2013-01-04 05:48:00,
2013-01-03 23:53:00,20.0,13.5,30.11,SW,236,14.5,19.7,75,0.00,,,0.00,CWS Microserver 1.4,2013-01-04 05:53:00,
2013-01-03 23:58:00,20.3,13.6,30.11,WSW,241,11.2,21.0,74,0.00,,,0.00,CWS Microserver 1.4,2013-01-04 05:58:00,